BAW786 VQPR-VNKT

Flight info

Callsign BAW786
Flight time 0h 52m
Altitude 36000
Route PRO G348 KIMTI KMTI2R
Aircraft A319/M-SDE3FGHIRWY/LB1

Departure

Time 2026-05-08 22:53
Airport Paro International Airport (VQPR)

Arrival

Time 2026-05-08 23:45
Airport Tribhuvan International Airport (VNKT)
Time Latitude Longitude Altitude Speed Heading
2026-05-08 22:40 27.40633 89.42108 7329 ft 0 kts 238°
2026-05-08 22:47 27.40640 89.42122 7328 ft 3 kts 238°
2026-05-08 22:48 27.40650 89.42137 7330 ft 2 kts 219°
2026-05-08 22:48 27.40658 89.42154 7331 ft 2 kts 303°
2026-05-08 22:48 27.40651 89.42162 7331 ft 0 kts 330°
2026-05-08 22:49 27.40654 89.42160 7331 ft 3 kts 327°
2026-05-08 22:50 27.40696 89.42128 7331 ft 12 kts 327°
2026-05-08 22:50 27.40763 89.42085 7331 ft 7 kts 330°
2026-05-08 22:50 27.40823 89.42090 7336 ft 10 kts 50°
2026-05-08 22:50 27.40878 89.42117 7341 ft 12 kts 345°
2026-05-08 22:51 27.40974 89.42060 7342 ft 19 kts 330°
2026-05-08 22:51 27.41115 89.41970 7343 ft 28 kts 330°
2026-05-08 22:51 27.41196 89.41908 7344 ft 4 kts
2026-05-08 22:51 27.41201 89.41919 7344 ft 1 kts 85°
2026-05-08 22:52 27.41184 89.41926 7344 ft 6 kts 155°
2026-05-08 22:52 27.41116 89.41970 7343 ft 16 kts 152°
2026-05-08 22:52 27.40846 89.42143 7341 ft 80 kts 150°
2026-05-08 22:52 27.40151 89.42584 7323 ft 147 kts 150°
2026-05-08 22:53 27.39116 89.43223 7509 ft 183 kts 152°
2026-05-08 22:53 27.37923 89.43816 8176 ft 189 kts 155°
2026-05-08 22:53 27.36700 89.44479 8622 ft 208 kts 153°
2026-05-08 22:53 27.35346 89.45269 8904 ft 231 kts 153°
2026-05-08 22:54 27.33852 89.46150 9218 ft 254 kts 153°
2026-05-08 22:54 27.32088 89.46703 9591 ft 271 kts 183°
2026-05-08 22:54 27.30650 89.45980 11233 ft 203 kts 231°
2026-05-08 22:54 27.29984 89.44714 12259 ft 183 kts 246°
2026-05-08 22:55 27.29526 89.43303 12668 ft 205 kts 248°
2026-05-08 22:55 27.28881 89.41772 13091 ft 223 kts 238°
2026-05-08 22:55 27.27992 89.40243 13603 ft 246 kts 230°
2026-05-08 22:55 27.26814 89.38727 14047 ft 270 kts 227°
2026-05-08 22:56 27.25512 89.37081 14452 ft 294 kts 227°
2026-05-08 22:56 27.24096 89.35295 14771 ft 318 kts 227°
2026-05-08 22:56 27.22627 89.33318 14993 ft 342 kts 233°
2026-05-08 22:56 27.21280 89.31051 15521 ft 354 kts 238°
2026-05-08 22:57 27.20030 89.28644 16293 ft 359 kts 240°
2026-05-08 22:57 27.18873 89.26149 17070 ft 365 kts 254°
2026-05-08 22:57 27.19070 89.23199 16795 ft 402 kts 279°
2026-05-08 22:57 27.18998 89.20093 17600 ft 394 kts 253°
2026-05-08 22:58 27.17784 89.17423 18896 ft 380 kts 230°
2026-05-08 22:58 27.15917 89.15362 19850 ft 374 kts 223°
2026-05-08 22:58 27.14003 89.13402 20608 ft 372 kts 223°
2026-05-08 22:58 27.12087 89.11442 21264 ft 373 kts 223°
2026-05-08 22:59 27.10218 89.09420 21770 ft 374 kts 231°
2026-05-08 22:59 27.08868 89.06932 22280 ft 376 kts 248°
2026-05-08 22:59 27.08294 89.04071 22842 ft 380 kts 265°
2026-05-08 22:59 27.08531 89.01106 23410 ft 385 kts 277°
2026-05-08 23:00 27.09009 88.98139 23912 ft 387 kts 277°
2026-05-08 23:00 27.09495 88.95163 24357 ft 388 kts 277°
2026-05-08 23:00 27.09982 88.92179 24804 ft 390 kts 277°
2026-05-08 23:00 27.10467 88.89183 25273 ft 391 kts 277°
2026-05-08 23:01 27.10952 88.86175 25758 ft 392 kts 277°
2026-05-08 23:01 27.11434 88.83160 26241 ft 393 kts 277°
2026-05-08 23:01 27.11914 88.80131 26645 ft 394 kts 276°
2026-05-08 23:01 27.12391 88.77104 27087 ft 394 kts 276°
2026-05-08 23:02 27.12868 88.74067 27487 ft 395 kts 276°
2026-05-08 23:02 27.13347 88.71025 27912 ft 397 kts 276°
2026-05-08 23:02 27.13826 88.67973 28363 ft 398 kts 276°
2026-05-08 23:02 27.14307 88.64907 28816 ft 399 kts 275°
2026-05-08 23:03 27.14787 88.61842 29230 ft 399 kts 275°
2026-05-08 23:03 27.15264 88.58808 29517 ft 401 kts 275°
2026-05-08 23:03 27.15749 88.55726 29875 ft 401 kts 275°
2026-05-08 23:03 27.16237 88.52630 30220 ft 403 kts 275°
2026-05-08 23:04 27.16727 88.49525 30480 ft 405 kts 275°
2026-05-08 23:04 27.17220 88.46393 30638 ft 409 kts 276°
2026-05-08 23:04 27.17713 88.43231 30813 ft 413 kts 276°
2026-05-08 23:04 27.18206 88.40041 31109 ft 416 kts 276°
2026-05-08 23:05 27.18698 88.36841 31464 ft 417 kts 276°
2026-05-08 23:05 27.19194 88.33630 31784 ft 417 kts 276°
2026-05-08 23:05 27.19689 88.30438 32166 ft 412 kts 275°
2026-05-08 23:05 27.20181 88.27278 32493 ft 411 kts 276°
2026-05-08 23:06 27.20669 88.24123 32636 ft 408 kts 276°
2026-05-08 23:06 27.21154 88.20975 32846 ft 409 kts 275°
2026-05-08 23:06 27.21637 88.17838 33267 ft 407 kts 275°
2026-05-08 23:06 27.22118 88.14720 33663 ft 404 kts 275°
2026-05-08 23:07 27.22593 88.11620 34150 ft 400 kts 275°
2026-05-08 23:07 27.23062 88.08553 34576 ft 397 kts 275°
2026-05-08 23:07 27.23528 88.05504 34892 ft 396 kts 275°
2026-05-08 23:07 27.23993 88.02459 35147 ft 396 kts 275°
2026-05-08 23:08 27.24460 87.99411 35432 ft 395 kts 275°
2026-05-08 23:08 27.24925 87.96369 35779 ft 394 kts 275°
2026-05-08 23:08 27.25387 87.93336 36046 ft 394 kts 274°
2026-05-08 23:08 27.25849 87.90282 36120 ft 399 kts 275°
2026-05-08 23:09 27.26788 87.84045 36120 ft 411 kts 275°
2026-05-08 23:09 27.27752 87.77630 36127 ft 422 kts 275°
2026-05-08 23:10 27.28740 87.71074 36637 ft 421 kts 275°
2026-05-08 23:10 27.29227 87.67861 37172 ft 413 kts 275°
2026-05-08 23:10 27.29710 87.64710 37731 ft 405 kts 275°
2026-05-08 23:11 27.30188 87.61626 38306 ft 396 kts 275°
2026-05-08 23:11 27.30661 87.58615 38868 ft 387 kts 275°
2026-05-08 23:11 27.31130 87.55673 39353 ft 378 kts 275°
2026-05-08 23:11 27.31594 87.52800 39863 ft 368 kts 276°
2026-05-08 23:12 27.32052 87.50006 40374 ft 358 kts 276°
2026-05-08 23:12 27.32503 87.47293 40894 ft 347 kts 276°
2026-05-08 23:12 27.32946 87.44667 41425 ft 336 kts 276°
2026-05-08 23:12 27.33381 87.42129 41987 ft 324 kts 277°
2026-05-08 23:13 27.33806 87.39695 42498 ft 311 kts 277°
2026-05-08 23:13 27.34219 87.37363 42998 ft 297 kts 277°
2026-05-08 23:13 27.34623 87.35115 43245 ft 292 kts 277°
2026-05-08 23:13 27.35029 87.32856 42985 ft 299 kts 277°
2026-05-08 23:14 27.35444 87.30514 42552 ft 312 kts 277°
2026-05-08 23:14 27.35868 87.28106 42441 ft 314 kts 277°
2026-05-08 23:14 27.36289 87.25734 42747 ft 303 kts 277°
2026-05-08 23:14 27.36700 87.23444 43041 ft 295 kts 277°
2026-05-08 23:15 27.37108 87.21185 42960 ft 296 kts 277°
2026-05-08 23:15 27.37522 87.18879 42586 ft 306 kts 277°
2026-05-08 23:15 27.37945 87.16503 42345 ft 312 kts 277°
2026-05-08 23:15 27.38370 87.14121 42506 ft 307 kts 277°
2026-05-08 23:16 27.38787 87.11807 42862 ft 297 kts 277°
2026-05-08 23:16 27.39194 87.09570 42993 ft 296 kts 277°
2026-05-08 23:16 27.39610 87.07282 42795 ft 303 kts 278°
2026-05-08 23:16 27.40035 87.04929 42559 ft 310 kts 277°
2026-05-08 23:17 27.40475 87.02523 42073 ft 325 kts 278°
2026-05-08 23:17 27.40982 86.99889 40640 ft 363 kts 278°
2026-05-08 23:17 27.41577 86.96886 38151 ft 428 kts 277°
2026-05-08 23:17 27.42197 86.93462 37386 ft 450 kts 277°
2026-05-08 23:18 27.42808 86.90032 37709 ft 448 kts 278°
2026-05-08 23:18 27.43503 86.86627 38034 ft 446 kts 279°
2026-05-08 23:18 27.44211 86.83233 38325 ft 444 kts 278°
2026-05-08 23:18 27.44749 86.79808 38387 ft 443 kts 274°
2026-05-08 23:19 27.45160 86.76360 38603 ft 443 kts 274°
2026-05-08 23:19 27.45574 86.72919 38720 ft 445 kts 274°
2026-05-08 23:19 27.45996 86.69518 39431 ft 433 kts 274°
2026-05-08 23:19 27.46419 86.66150 39342 ft 434 kts 274°
2026-05-08 23:20 27.46830 86.62732 38124 ft 447 kts 274°
2026-05-08 23:20 27.47174 86.59296 38009 ft 434 kts 273°
2026-05-08 23:20 27.47830 86.52695 38286 ft 417 kts 273°
2026-05-08 23:21 27.48496 86.46303 37567 ft 413 kts 273°
2026-05-08 23:21 27.48819 86.43079 36700 ft 416 kts 273°
2026-05-08 23:21 27.49129 86.39818 35867 ft 421 kts 273°
2026-05-08 23:22 27.49421 86.36525 35059 ft 424 kts 273°
2026-05-08 23:22 27.49646 86.33199 34198 ft 427 kts 268°
2026-05-08 23:22 27.49147 86.29910 33296 ft 429 kts 253°
2026-05-08 23:22 27.48165 86.26710 32158 ft 437 kts 250°
2026-05-08 23:23 27.47057 86.23540 30948 ft 447 kts 248°
2026-05-08 23:23 27.45672 86.20356 29550 ft 460 kts 242°
2026-05-08 23:23 27.44016 86.17225 27964 ft 471 kts 239°
2026-05-08 23:23 27.42229 86.14084 26487 ft 480 kts 238°
2026-05-08 23:24 27.40346 86.10951 25137 ft 485 kts 237°
2026-05-08 23:24 27.38427 86.07851 24265 ft 479 kts 236°
2026-05-08 23:24 27.36533 86.04812 23506 ft 470 kts 236°
2026-05-08 23:24 27.34678 86.01811 22525 ft 464 kts 236°
2026-05-08 23:25 27.32862 85.98837 21586 ft 458 kts 237°
2026-05-08 23:25 27.31084 85.95893 20683 ft 452 kts 237°
2026-05-08 23:25 27.29337 85.92980 19790 ft 447 kts 237°
2026-05-08 23:25 27.27614 85.90099 18953 ft 441 kts 237°
2026-05-08 23:26 27.25912 85.87255 18097 ft 436 kts 237°
2026-05-08 23:26 27.24229 85.84448 17147 ft 431 kts 236°
2026-05-08 23:26 27.22562 85.81677 16233 ft 425 kts 236°
2026-05-08 23:26 27.20910 85.78942 15383 ft 420 kts 236°
2026-05-08 23:27 27.19277 85.76245 14566 ft 416 kts 236°
2026-05-08 23:27 27.17665 85.73586 13821 ft 411 kts 236°
2026-05-08 23:27 27.16057 85.70934 12906 ft 409 kts 235°
2026-05-08 23:27 27.14470 85.68312 12104 ft 404 kts 236°
2026-05-08 23:28 27.13131 85.65565 11325 ft 399 kts 246°
2026-05-08 23:28 27.12252 85.62675 10621 ft 394 kts 256°
2026-05-08 23:28 27.11826 85.59705 10355 ft 376 kts 265°
2026-05-08 23:28 27.11772 85.56854 10215 ft 355 kts 269°
2026-05-08 23:29 27.11777 85.54171 10230 ft 333 kts 269°
2026-05-08 23:29 27.11776 85.51632 10237 ft 321 kts 269°
2026-05-08 23:29 27.11773 85.49142 10238 ft 318 kts 269°
2026-05-08 23:29 27.11770 85.46661 10238 ft 318 kts 269°
2026-05-08 23:30 27.11769 85.44184 10238 ft 318 kts 269°
2026-05-08 23:30 27.11768 85.41745 10232 ft 305 kts 269°
2026-05-08 23:30 27.11769 85.39427 10231 ft 289 kts 269°
2026-05-08 23:30 27.11770 85.37224 10231 ft 275 kts 269°
2026-05-08 23:31 27.11770 85.35129 10231 ft 262 kts 269°
2026-05-08 23:31 27.11771 85.33137 10232 ft 249 kts 269°
2026-05-08 23:31 27.11782 85.31239 10231 ft 239 kts 272°
2026-05-08 23:31 27.11971 85.29396 10232 ft 237 kts 280°
2026-05-08 23:32 27.12363 85.27600 10232 ft 237 kts 287°
2026-05-08 23:32 27.12940 85.25870 10227 ft 237 kts 294°
2026-05-08 23:32 27.13694 85.24224 10227 ft 237 kts 300°
2026-05-08 23:32 27.14622 85.22695 10227 ft 238 kts 308°
2026-05-08 23:33 27.15716 85.21305 10247 ft 238 kts 315°
2026-05-08 23:33 27.16522 85.20472 10246 ft 238 kts 320°
2026-05-08 23:33 27.17848 85.19361 10248 ft 238 kts 327°
2026-05-08 23:33 27.19289 85.18439 10249 ft 239 kts 334°
2026-05-08 23:34 27.20821 85.17723 10249 ft 239 kts 341°
2026-05-08 23:34 27.22426 85.17227 10252 ft 239 kts 348°
2026-05-08 23:34 27.24030 85.16966 10248 ft 224 kts 355°
2026-05-08 23:34 27.25570 85.16922 10251 ft 220 kts
2026-05-08 23:35 27.27090 85.17075 10251 ft 219 kts
2026-05-08 23:35 27.28583 85.17424 10282 ft 219 kts 15°
2026-05-08 23:35 27.30063 85.17835 10283 ft 219 kts 12°
2026-05-08 23:35 27.31553 85.18188 10281 ft 219 kts 11°
2026-05-08 23:36 27.33044 85.18540 10282 ft 219 kts 12°
2026-05-08 23:36 27.34530 85.18907 10284 ft 219 kts 12°
2026-05-08 23:36 27.36019 85.19289 10283 ft 219 kts 13°
2026-05-08 23:36 27.37502 85.19680 10282 ft 219 kts 13°
2026-05-08 23:37 27.38982 85.20079 10282 ft 219 kts 13°
2026-05-08 23:37 27.40463 85.20483 10309 ft 219 kts 15°
2026-05-08 23:37 27.41942 85.20891 10312 ft 219 kts 15°
2026-05-08 23:37 27.43380 85.21292 10338 ft 201 kts 15°
2026-05-08 23:38 27.44651 85.21646 10317 ft 173 kts 15°
2026-05-08 23:38 27.45734 85.21946 10305 ft 157 kts 16°
2026-05-08 23:38 27.46786 85.22240 10307 ft 155 kts 16°
2026-05-08 23:38 27.47831 85.22532 10315 ft 154 kts 16°
2026-05-08 23:39 27.48871 85.22823 10312 ft 154 kts 16°
2026-05-08 23:39 27.49930 85.23120 9993 ft 158 kts 16°
2026-05-08 23:39 27.50983 85.23416 9610 ft 154 kts 16°
2026-05-08 23:39 27.52015 85.23705 9280 ft 152 kts 16°
2026-05-08 23:40 27.53033 85.23991 8928 ft 150 kts 16°
2026-05-08 23:40 27.54045 85.24276 8600 ft 149 kts 16°
2026-05-08 23:40 27.55049 85.24558 8267 ft 148 kts 15°
2026-05-08 23:40 27.56032 85.24834 8148 ft 145 kts 16°
2026-05-08 23:41 27.57023 85.25111 8092 ft 147 kts 15°
2026-05-08 23:41 27.58018 85.25390 8034 ft 147 kts 16°
2026-05-08 23:41 27.59011 85.25670 7953 ft 147 kts 16°
2026-05-08 23:41 27.60001 85.25950 7888 ft 147 kts 15°
2026-05-08 23:42 27.60990 85.26228 7815 ft 146 kts 15°
2026-05-08 23:42 27.61978 85.26504 7731 ft 146 kts 16°
2026-05-08 23:42 27.62952 85.26821 7645 ft 146 kts 27°
2026-05-08 23:42 27.63757 85.27475 7620 ft 144 kts 48°
2026-05-08 23:43 27.64288 85.28418 7549 ft 142 kts 70°
2026-05-08 23:43 27.64474 85.29497 7477 ft 142 kts 90°
2026-05-08 23:43 27.64406 85.30612 7216 ft 145 kts 90°
2026-05-08 23:43 27.64543 85.31725 6864 ft 143 kts 75°
2026-05-08 23:44 27.64920 85.32749 6495 ft 141 kts 60°
2026-05-08 23:44 27.65497 85.33621 6117 ft 141 kts 48°
2026-05-08 23:44 27.66281 85.34405 5316 ft 162 kts 33°
2026-05-08 23:44 27.67352 85.34907 4686 ft 165 kts 18°
2026-05-08 23:45 27.68367 85.35321 4424 ft 147 kts 24°
2026-05-08 23:45 27.69281 85.35745 4359 ft 129 kts 22°
2026-05-08 23:45 27.69823 85.35988 4353 ft 32 kts 22°
2026-05-08 23:45 27.69924 85.35940 4366 ft 19 kts 321°
2026-05-08 23:46 27.70030 85.35964 4364 ft 18 kts 22°
2026-05-08 23:46 27.70158 85.36022 4360 ft 8 kts 22°
2026-05-08 23:46 27.70178 85.36031 4371 ft 0 kts 22°
2026-05-08 23:47 27.70199 85.36041 4381 ft 7 kts 22°
2026-05-08 23:47 27.70264 85.36070 4365 ft 10 kts 16°
2026-05-08 23:47 27.70358 85.36045 4384 ft 18 kts 340°
2026-05-08 23:48 27.70490 85.35996 4386 ft 11 kts 342°
2026-05-08 23:48 27.70539 85.36034 4387 ft 11 kts 53°
2026-05-08 23:48 27.70573 85.36087 4385 ft 7 kts 67°
2026-05-08 23:48 27.70575 85.36097 4389 ft 0 kts 75°